Regional Weather Roundup
Issued by NWS Cleveland, OH

Home | Current Version | Previous Version | Text Only | Print | Product List | Glossary Off
Versions: 1 2 3 4 5 6 7 8 9 10 11 12 13 14 15 16 17 18 19 20 21 22 23 24 25 26 27 28 29 30 31 32 33 34 35 36 37 38 39 40 41 42 43 44 45 46 47 48 49 50

103
ASUS41 KCLE 202202
RWRCLE
OHIO REGIONAL WEATHER ROUNDUP
NATIONAL WEATHER SERVICE CLEVELAND, OH
500 PM EST TUE FEB 20 2018

NOTE: "FAIR" INDICATES FEW OR NO CLOUDS BELOW 12,000 FEET WITH NO
SIGNIFICANT WEATHER AND/OR OBSTRUCTIONS TO VISIBILITY.

OHZ001>008-015>018-024>027-034-035-043-044-202300-
   NORTHWEST OHIO

CITY           SKY/WX    TMP DP  RH WIND       PRES   REMARKS
DEFIANCE       FAIR      69  61  75 S13       29.98S
FINDLAY        FAIR      71  56  58 S20       30.02S
TOLEDO EXPRESS FAIR      69  60  73 S14       29.99S
TOLEDO EXEC    FAIR      69  59  70 S16G22    30.01S
LIMA           FAIR      71  57  61 S17G23    30.04R
$$

OHZ009>014-019>023-028>033-038-089-202300-
   NORTHEAST OHIO

CITY           SKY/WX    TMP DP  RH WIND       PRES   REMARKS
CLE-HOPKINS    PTSUNNY   72  56  57 SW18      30.10S
CLE-LAKEFRONT  PTSUNNY   73  55  53 S15G21    30.06F
CUY CO. ARPT   PTSUNNY   72  59  64 S12       30.09F
LORAIN-ELYRIA  FAIR      70  54  56 SW12G22   30.07S
ASHTABULA      CLOUDY    67  59  75 S7        30.12R
AKRON-CANTON   PTSUNNY   73  54  51 S13       30.13R
WOOSTER        FAIR      72  54  53 SW15      30.12R
MANSFIELD      FAIR      71  56  58 S16G25    30.10S
YOUNGSTOWN     CLOUDY    73  55  53 SW10      30.13S
$$

OHZ042-051>053-060>062-070>072-077>081-202300-
  SOUTHWEST OHIO

CITY           SKY/WX    TMP DP  RH WIND       PRES   REMARKS
CINC-COVINGTON CLOUDY    77  55  46 S17G30    30.10R
CINC-LUNKEN    PTSUNNY   77  55  46 SW18G29   30.10S
HAMILTON       FAIR      78  55  44 S15G26    30.09S
DAYTON         PTSUNNY   74  55  51 S16       30.09R
WRIGHT-PAT AFB FAIR      75  53  44 S20G26    30.08S
DAYTON GENERAL PTSUNNY   76  53  44 S14G22    30.09R
WILMINGTON     FAIR      73  58  59 S13       30.12R
$$

OHZ036-037-039>041-045>050-054>059-063>069-073>076-082>088-202300-
  CENTRAL AND SOUTHEAST OHIO

CITY           SKY/WX    TMP DP  RH WIND       PRES   REMARKS
COLUMBUS       CLOUDY    75  55  49 S14       30.12S
OSU AIRPORT    FAIR      74  56  53 S16G28    30.10S
BOLTON FIELD   MOSUNNY   73  55  53 S18       30.13S
RICKENBACK AFB FAIR      74  55  52 S14G22    30.12R
NEWARK         FAIR      75  54  47 SW12      30.12S
MARION         FAIR      71  57  61 S15G23    30.09S
LANCASTER      FAIR      75  54  47 SW13G18   30.14S
ZANESVILLE     FAIR      75  50  41 S12G26    30.14S
NEW PHILLY     NOT AVBL
$$




USA.gov is the U.S. government's official web portal to all federal, state and local government web resources and services.